Afton Municipal Airport, WY

5:43 PM MST on December 12, 2019 (GMT -0700)
Afton Municipal

Weather History for KAFO - August, 2019

Change the Weather History Date:

Sunday, August 18, 2019

  Actual Average Record
Temperature  
Mean Temperature 58 °F -  
Max Temperature 80 °F 79 °F 80 °F (2014)
Min Temperature 35 °F 41 °F 33 °F (2015)
Degree Days  
Heating Degree Days 8    
Growing Degree Days 8 (Base 50)    
Moisture  
Dew Point 36 °F    
Average Humidity 49    
Maximum Humidity 87    
Minimum Humidity 21    
Precipitation  
Precipitation 0.00 in - - ()
Sea Level Pressure  
Sea Level Pressure 30.09 in    
Wind  
Wind Speed 3 mph (WSW)    
Max Wind Speed 17 mph    
Max Gust Speed 23 mph    
Visibility 10 miles    
Events      
Averages and records for this station are not official NWS values.
T = Trace of Precipitation, MM = Missing Value Source: NWS Daily Summary

Daily Weather History Graph

Daily Weather History Graph

Search for Another Location

Airport or City:

Astronomy

Aug. 18, 2019 Rise Set
Actual Time 6:33 AM MDT 8:21 PM MDT
Civil Twilight 6:03 AM MDT 8:51 PM MDT
Nautical Twilight 5:26 AM MDT 9:27 PM MDT
Astronomical Twilight 4:46 AM MDT 10:07 PM MDT
Moon 10:13 PM MDT (8/18) 9:24 AM MDT (8/18)
Length of Visible Light 14h 48m
Length of Day
13h 47m
Waning Gibbous, 91% of the Moon is Illuminated
Aug 18
Waning Gibbous
Aug 23
Last Quarter
Aug 30
New
Sep 5
First Quarter
Sep 13
Full

Hourly Weather History & Observations

Time (MDT) Temp. Windchill Dew Point Humidity Pressure Visibility Wind Dir Wind Speed Gust Speed Precip Events Conditions
12:15 AM 42.8 °F - 32.0 °F 66% 30.05 in 10.0 mi Calm Calm - N/A   Clear
12:35 AM 42.8 °F 41.1 °F 32.0 °F 66% 30.04 in 10.0 mi SSW 3.5 mph - N/A   Clear
12:55 AM 41.0 °F - 32.0 °F 70% 30.05 in 10.0 mi Calm Calm - N/A   Clear
1:15 AM 41.0 °F - 32.0 °F 70% 30.05 in 10.0 mi Calm Calm - N/A   Clear
1:35 AM 42.8 °F - 32.0 °F 66% 30.05 in 10.0 mi Calm Calm - N/A   Clear
1:55 AM 37.4 °F - 32.0 °F 81% 30.05 in 10.0 mi Calm Calm - N/A   Clear
2:15 AM 37.4 °F - 32.0 °F 81% 30.06 in 10.0 mi Calm Calm - N/A   Clear
2:35 AM 39.2 °F - 32.0 °F 75% 30.05 in 10.0 mi Calm Calm - N/A   Clear
2:55 AM 41.0 °F 38.0 °F 32.0 °F 70% 30.05 in 10.0 mi South 4.6 mph - N/A   Clear
3:15 AM 39.2 °F 37.0 °F 32.0 °F 75% 30.05 in 10.0 mi South 3.5 mph - N/A   Clear
3:35 AM 39.2 °F - 32.0 °F 75% 30.05 in 10.0 mi North - - N/A   Clear
3:55 AM 41.0 °F - 32.0 °F 70% 30.06 in 10.0 mi Calm Calm - N/A   Clear
4:15 AM 37.4 °F - 32.0 °F 81% 30.06 in 10.0 mi Calm Calm - N/A   Clear
4:35 AM 37.4 °F - 32.0 °F 81% 30.06 in 10.0 mi Calm Calm - N/A   Clear
4:55 AM 37.4 °F 33.8 °F 32.0 °F 81% 30.06 in 10.0 mi WSW 4.6 mph - N/A   Clear
5:15 AM 35.6 °F - 32.0 °F 87% 30.06 in 10.0 mi Calm Calm - N/A   Clear
5:35 AM 37.4 °F - 30.2 °F 75% 30.06 in 10.0 mi Calm Calm - N/A   Clear
5:55 AM 37.4 °F - 30.2 °F 75% 30.07 in 10.0 mi Calm Calm - N/A   Clear
6:15 AM 35.6 °F - 30.2 °F 81% 30.07 in 10.0 mi Calm Calm - N/A   Clear
6:35 AM 37.4 °F - 32.0 °F 81% 30.08 in 10.0 mi Calm Calm - N/A   Clear
6:55 AM 35.6 °F - 30.2 °F 81% 30.09 in 10.0 mi Calm Calm - N/A   Clear
7:15 AM 35.6 °F - 30.2 °F 81% 30.10 in 10.0 mi Calm Calm - N/A   Clear
7:35 AM 39.2 °F - 32.0 °F 75% 30.11 in 10.0 mi Calm Calm - N/A   Clear
7:55 AM 42.8 °F - 33.8 °F 70% 30.11 in 10.0 mi Calm Calm - N/A   Clear
8:15 AM 46.4 °F - 32.0 °F 57% 30.12 in 10.0 mi Calm Calm - N/A   Clear
8:35 AM 50.0 °F - 32.0 °F 50% 30.13 in 10.0 mi Calm Calm - N/A   Clear
8:55 AM 51.8 °F - 32.0 °F 47% 30.13 in 10.0 mi Calm Calm - N/A   Clear
9:15 AM 53.6 °F - 33.8 °F 47% 30.13 in 10.0 mi Calm Calm - N/A   Clear
9:35 AM 55.4 °F - 35.6 °F 47% 30.13 in 10.0 mi Calm Calm - N/A   Clear
9:55 AM 59.0 °F - 37.4 °F 45% 30.13 in 10.0 mi Calm Calm - N/A   Clear
10:15 AM 60.8 °F - 37.4 °F 42% 30.13 in 10.0 mi NNW 3.5 mph - N/A   Clear
10:35 AM 64.4 °F - 35.6 °F 34% 30.13 in 10.0 mi Calm Calm - N/A   Clear
10:55 AM 68.0 °F - 39.2 °F 35% 30.13 in 10.0 mi WNW 3.5 mph - N/A   Clear
11:15 AM 71.6 °F - 33.8 °F 25% 30.13 in 10.0 mi Calm Calm - N/A   Clear
11:35 AM 71.6 °F - 33.8 °F 25% 30.13 in 10.0 mi North 3.5 mph - N/A   Clear
11:55 AM 73.4 °F - 33.8 °F 23% 30.12 in 10.0 mi East 3.5 mph - N/A   Clear
12:15 PM 73.4 °F - 33.8 °F 23% 30.12 in 10.0 mi WSW 3.5 mph - N/A   Clear
12:35 PM 75.2 °F - 35.6 °F 24% 30.12 in 10.0 mi WNW 10.4 mph - N/A   Clear
12:55 PM 77.0 °F - 37.4 °F 24% 30.13 in 10.0 mi West 15.0 mph 19.6 mph N/A   Clear
1:15 PM 77.0 °F - 37.4 °F 24% 30.13 in 10.0 mi West 6.9 mph 20.7 mph N/A   Clear
1:35 PM 77.0 °F - 37.4 °F 24% 30.13 in 10.0 mi WSW 9.2 mph - N/A   Clear
1:55 PM 77.0 °F - 37.4 °F 24% 30.12 in 10.0 mi West 13.8 mph 23.0 mph N/A   Clear
2:15 PM 77.0 °F - 39.2 °F 26% 30.12 in 10.0 mi NW 15.0 mph 21.9 mph N/A   Clear
2:35 PM 77.0 °F - 37.4 °F 24% 30.12 in 10.0 mi WNW 10.4 mph 23.0 mph N/A   Clear
2:55 PM 78.8 °F - 35.6 °F 21% 30.12 in 10.0 mi WNW 17.3 mph 23.0 mph N/A   Clear
3:15 PM 78.8 °F - 37.4 °F 23% 30.11 in 10.0 mi West 11.5 mph 18.4 mph N/A   Clear
3:35 PM 78.8 °F - 35.6 °F 21% 30.10 in 10.0 mi West 8.1 mph - N/A   Clear
3:55 PM 80.6 °F - 39.2 °F 23% 30.09 in 10.0 mi West 11.5 mph - N/A   Clear
4:15 PM 78.8 °F - 37.4 °F 23% 30.09 in 10.0 mi WNW 13.8 mph 20.7 mph N/A   Clear
4:35 PM 78.8 °F - 37.4 °F 23% 30.09 in 10.0 mi West 13.8 mph 17.3 mph N/A   Clear
4:55 PM 78.8 °F - 39.2 °F 24% 30.09 in 10.0 mi NW 4.6 mph 9.2 mph N/A   Clear
5:15 PM 78.8 °F - 37.4 °F 23% 30.08 in 10.0 mi West 10.4 mph 23.0 mph N/A   Clear
5:35 PM 78.8 °F - 37.4 °F 23% 30.07 in 10.0 mi WSW 3.5 mph - N/A   Clear
5:55 PM 78.8 °F - 42.8 °F 28% 30.07 in 10.0 mi West 8.1 mph - N/A   Clear
6:15 PM 78.8 °F - 39.2 °F 24% 30.07 in 10.0 mi SW 4.6 mph - N/A   Clear
6:35 PM 77.0 °F - 41.0 °F 28% 30.07 in 10.0 mi WSW 8.1 mph - N/A   Clear
6:55 PM 73.4 °F - 41.0 °F 31% 30.07 in 10.0 mi WSW 6.9 mph - N/A   Clear
7:15 PM 73.4 °F - 42.8 °F 33% 30.07 in 10.0 mi SW 4.6 mph - N/A   Clear
7:35 PM 69.8 °F - 42.8 °F 38% 30.07 in 10.0 mi SW 3.5 mph - N/A   Clear
7:55 PM 69.8 °F - 39.2 °F 33% 30.07 in 10.0 mi SSE 3.5 mph - N/A   Clear
8:15 PM 62.6 °F - 42.8 °F 48% 30.08 in 10.0 mi Calm Calm - N/A   Clear
8:35 PM 60.8 °F - 41.0 °F 48% 30.08 in 10.0 mi SSE 3.5 mph - N/A   Clear
8:55 PM 60.8 °F - 39.2 °F 45% 30.09 in 10.0 mi Calm Calm - N/A   Clear
9:15 PM 60.8 °F - 37.4 °F 42% 30.10 in 10.0 mi Calm Calm - N/A   Clear
9:35 PM 57.2 °F - 37.4 °F 48% 30.10 in 10.0 mi SW 3.5 mph - N/A   Clear
9:55 PM 55.4 °F - 37.4 °F 51% 30.10 in 10.0 mi Calm Calm - N/A   Clear
10:15 PM 53.6 °F - 39.2 °F 58% 30.11 in 10.0 mi SSW 8.1 mph - N/A   Clear
10:35 PM 55.4 °F - 37.4 °F 51% 30.11 in 10.0 mi Calm Calm - N/A   Clear
10:55 PM 57.2 °F - 35.6 °F 44% 30.11 in 10.0 mi Calm Calm - N/A   Clear
11:15 PM 55.4 °F - 35.6 °F 47% 30.11 in 10.0 mi Calm Calm - N/A   Clear
11:35 PM 50.0 °F - 37.4 °F 62% 30.11 in 10.0 mi Calm Calm - N/A   Clear
11:55 PM 50.0 °F - 37.4 °F 62% 30.12 in 10.0 mi Calm Calm - N/A   Clear